Location: Bas-Clignon
(44.2000°N, 6.6333°E)
Time: 03:19:50
(UTC+00:00)

Cosmos 841 Rocket - Pass Details

Date: 03 February 2023
Orbit: 746 x 771 km, 74.0° (Epoch: 27 March)

Event Time Altitude Azimuth Distance (km) Brightness Sun altitude
Rises 18:30:40 0° 340° (NNW) 3,255 7.0 -19.1°
Reaches altitude 10° 18:33:05 10° 342° (NNW) 2,323 6.1 -19.5°
Maximum altitude 18:38:22 74° 68° (ENE) 802 3.4 -20.4°
Enters shadow 18:42:35 16° 152° (SSE) 1,921 5.3 -21.2°
